Location: Unspecified
(35.6961°N, 0.0000°E)
Time: 21:50:13
(UTC+00:00)

Courier 1B Rocket - All Passes

Search period start: 26 May 2019 00:00
Search period end: 05 June 2019 00:00
Orbit: 920 x 1202 km, 28.3° (Epoch: 25 May)

Date Brightness Start Highest point End Pass type
(mag) Time Alt. Az. Time Alt. Az. Time Alt. Az.
26 May - 12:26:03 10° SSE 12:28:06 11° SSE 12:30:12 10° SE daylight
26 May - 14:14:28 10° SW 14:20:49 30° SSE 14:27:24 10° ESE daylight
26 May - 16:06:42 10° WSW 16:14:01 47° S 16:21:28 10° ESE daylight
26 May - 18:00:03 10° WSW 18:07:26 46° S 18:14:44 10° ESE daylight
26 May - 19:54:14 10° WSW 20:00:36 28° SSW 20:06:47 10° SSE visible
27 May - 13:14:17 10° SSW 13:19:51 23° SSE 13:25:38 10° ESE daylight
27 May - 15:05:49 10° WSW 15:12:53 43° SSE 15:20:10 10° E daylight
27 May - 16:58:51 10° WSW 17:06:15 49° S 17:13:43 10° ESE daylight
27 May - 18:52:39 10° W 18:59:33 35° SSW 19:06:21 10° SE daylight
27 May - 20:48:21 10° WSW 20:52:25 15° SSW 20:56:26 10° S visible
28 May - 12:14:40 10° S 12:18:58 17° SSE 12:23:24 10° ESE daylight
28 May - 14:05:07 10° SW 14:11:47 37° SSE 14:18:44 10° E daylight
28 May - 15:57:45 10° WSW 16:05:04 50° S 16:12:34 10° ESE daylight
28 May - 17:51:16 10° W 17:58:27 41° SSW 18:05:37 10° SE daylight
28 May - 19:45:55 10° WSW 19:51:29 21° SSW 19:56:58 10° SSE visible
29 May - 11:16:42 10° SSE 11:18:09 11° SSE 11:19:36 10° SE daylight
29 May - 13:04:41 10° SW 13:10:47 30° SSE 13:17:11 10° ESE daylight
29 May - 14:56:48 10° WSW 15:03:54 47° S 15:11:18 10° ESE daylight
29 May - 16:50:01 10° WSW 16:57:17 46° S 17:04:40 10° ESE daylight
29 May - 18:44:06 10° WSW 18:50:30 28° SSW 18:56:50 10° SSE daylight
30 May - 12:04:36 10° SSW 12:09:51 23° SSE 12:15:23 10° ESE daylight
30 May - 13:56:01 10° WSW 14:02:47 42° SSE 14:09:57 10° E daylight
30 May - 15:48:55 10° WSW 15:56:07 49° S 16:03:35 10° ESE daylight
30 May - 17:42:35 10° W 17:49:25 34° SSW 17:56:18 10° SE daylight
30 May - 19:38:11 10° WSW 19:42:21 15° SSW 19:46:30 10° S visible
31 May - 11:05:05 10° S 11:09:02 16° SSE 11:13:07 10° ESE daylight
31 May - 12:55:24 10° SW 13:01:45 36° SSE 13:08:31 10° E daylight
31 May - 14:47:55 10° WSW 14:54:58 49° S 15:02:22 10° ESE daylight
31 May - 16:41:17 10° W 16:48:19 40° SSW 16:55:30 10° SE daylight
31 May - 18:35:50 10° WSW 18:41:23 21° SSW 18:46:56 10° SSE daylight
01 Jun - 11:55:03 10° SW 12:00:49 29° SSE 12:06:56 10° ESE daylight
01 Jun - 13:47:04 10° WSW 13:53:51 46° S 14:01:04 10° ESE daylight
01 Jun - 15:40:09 10° WSW 15:47:11 45° S 15:54:30 10° ESE daylight
01 Jun - 17:34:06 10° WSW 17:40:22 27° SSW 17:46:43 10° SSE daylight
02 Jun - 10:55:02 10° SSW 10:59:58 22° SSE 11:05:09 10° ESE daylight
02 Jun - 12:46:21 10° WSW 12:52:48 41° SSE 12:59:42 10° ESE daylight
02 Jun - 14:39:07 10° WSW 14:46:03 48° S 14:53:21 10° ESE daylight
02 Jun - 16:32:41 10° WSW 16:39:18 34° SSW 16:46:08 10° SE daylight
02 Jun - 18:28:12 10° WSW 18:32:16 15° SSW 18:36:21 10° S daylight
03 Jun - 09:55:36 10° S 09:59:11 15° SSE 10:02:53 10° ESE daylight
03 Jun - 11:45:48 10° SW 11:51:50 35° SSE 11:58:16 10° ESE daylight
03 Jun - 13:38:14 10° WSW 13:44:57 48° S 13:52:07 10° ESE daylight
03 Jun - 15:31:29 10° W 15:38:12 39° SSW 15:45:17 10° SE daylight
03 Jun - 17:25:56 10° WSW 17:31:17 21° SSW 17:36:44 10° SSE daylight
04 Jun - 10:45:30 10° SW 10:50:57 28° SSE 10:56:44 10° ESE daylight
04 Jun - 12:37:26 10° WSW 12:43:54 45° S 12:50:50 10° ESE daylight
04 Jun - 14:30:25 10° WSW 14:37:08 44° S 14:44:15 10° ESE daylight
04 Jun - 16:24:16 10° WSW 16:30:16 27° SSW 16:36:29 10° SSE daylight
